Regional Weather Roundup
Issued by NWS

Home | Current Version | Previous Version | Graphics & Text | Print | Product List | Glossary On
Versions: 1 2 3 4 5 6 7 8 9 10 11 12 13 14 15 16 17 18 19 20 21 22 23 24 25 26 27 28 29 30 31 32 33 34 35 36 37 38 39 40 41 42 43 44 45 46 47 48 49 50
516
ASUS43 KBIS 260710
RWRND

NORTH DAKOTA REGIONAL WEATHER ROUNDUP
NATIONAL WEATHER SERVICE BISMARCK ND
200 AM CDT SUN MAR 26 2017

NOTE: "FAIR" INDICATES FEW OR NO CLOUDS BELOW 12,000 FEET WITH NO
SIGNIFICANT WEATHER AND/OR OBSTRUCTIONS TO VISIBILITY.


NDZ001>003-009>011-017-260800-
NORTHWEST NORTH DAKOTA

CITY           SKY/WX    TMP DP  RH WIND       PRES   REMARKS
WILLISTON      FAIR      43  33  68 N8        29.90R
MINOT          CLOUDY    43  35  73 S6        29.89R
MINOT AFB      CLOUDY    38  34  85 NE5       29.89R
$$

NDZ018>021-031>035-040>046-260800-
SOUTHWEST NORTH DAKOTA

CITY           SKY/WX    TMP DP  RH WIND       PRES   REMARKS
BISMARCK       CLOUDY    41  35  79 SE5       29.93S
DICKINSON      CLOUDY    46  29  51 CALM      29.88S
GARRISON         N/A     39  32  76 SE3       29.90R
HETTINGER ARPT CLOUDY    43  35  73 CALM      29.90S
$$

NDZ004>008-012>016-024-026-027-054-260800-
NORTHEAST NORTH DAKOTA

CITY           SKY/WX    TMP DP  RH WIND       PRES   REMARKS
GRAND FORKS    CLOUDY    33  32  96 S7        29.99F
GRND FRKS AFB  CLOUDY    34  33  97 S9        29.98F
DEVILS LAKE    CLOUDY    34  32  92 S9        29.94F
$$

NDZ022-023-025-028>030-036>039-047>053-260800-
SOUTHEAST NORTH DAKOTA

CITY           SKY/WX    TMP DP  RH WIND       PRES   REMARKS
FARGO          CLOUDY    35  33  92 S6        29.99F
JAMESTOWN      FOG       32  32 100 S10       29.95F VSB 1/2
$$





USA.gov is the U.S. government's official web portal to all federal, state and local government web resources and services.